Regional Weather Roundup
Issued by NWS Cleveland, OH

Home | Current Version | Previous Version | Graphics & Text | Print | Product List | Glossary On
Versions: 1 2 3 4 5 6 7 8 9 10 11 12 13 14 15 16 17 18 19 20 21 22 23 24 25 26 27 28 29 30 31 32 33 34 35 36 37 38 39 40 41 42 43 44 45 46 47 48 49 50
000
ASUS41 KCLE 230900
RWRCLE
OHIO REGIONAL WEATHER ROUNDUP
NATIONAL WEATHER SERVICE WILMINGTON, OH
500 AM EDT WED APR 23 2014

NOTE: "FAIR" INDICATES FEW OR NO CLOUDS BELOW 12,000 FEET WITH NO
SIGNIFICANT WEATHER AND/OR OBSTRUCTIONS TO VISIBILITY.

OHZ001>008-015>018-024>027-034-035-043-044-231000-
   NORTHWEST OHIO

CITY           SKY/WX    TMP DP  RH WIND       PRES   REMARKS
DEFIANCE       CLEAR     37  27  67 N9        30.02R
FINDLAY        CLEAR     36  28  73 N9        29.98R
TOLEDO EXPRESS CLEAR     35  27  72 NW8       30.00R WCI  29
TOLEDO METCALF CLEAR     37  27  67 NW12      30.00R
LIMA           CLEAR     37  29  72 NW9       29.99R
$$

OHZ009>014-019>023-028>033-038-089-231000-
   NORTHEAST OHIO

CITY           SKY/WX    TMP DP  RH WIND       PRES   REMARKS
CLE-HOPKINS    CLOUDY    41  31  67 NW16      29.96R
CLE-LAKEFRONT  CLOUDY    40  34  79 NW16      29.92R
CUY CO. ARPT   NOT AVBL
LORAIN-ELYRIA  CLOUDY    42  31  64 N15G23    29.95R
ASHTABULA      CLOUDY    36  31  82 NW16G26   29.89R
AKRON-CANTON   CLOUDY    41  31  68 N14       29.89R
WOOSTER        NOT AVBL
MANSFIELD      CLOUDY    39  30  70 NW10      29.93R
YOUNGSTOWN     CLOUDY    38  31  76 NW13G23   29.87R
$$

OHZ042-051>053-060>062-070>072-077>081-231000-
  SOUTHWEST OHIO

CITY           SKY/WX    TMP DP  RH WIND       PRES   REMARKS
CINC-COVINGTON CLEAR     41  31  67 NW7       30.00R
CINC-LUNKEN    CLEAR     42  31  64 NW5       30.02R
HAMILTON       CLEAR     40  32  73 NW7       30.02R
DAYTON         NOT AVBL
WRIGHT-PAT AFB CLEAR     39  30  69 NW9       29.99R
DAYTON GENERAL CLEAR     39  31  72 NW6       29.98R
WILMINGTON     CLEAR     39  29  67 NW7       29.97S
$$

OHZ036-037-039>041-045>050-054>059-063>069-073>076-082>088-231000-
  CENTRAL AND SOUTHEAST OHIO

CITY           SKY/WX    TMP DP  RH WIND       PRES   REMARKS
COLUMBUS       CLEAR     42  29  59 N9        29.95R
OSU AIRPORT    CLEAR     37  30  75 NW7       29.96R
BOLTON FIELD   NOT AVBL
RICKENBACK AFB NOT AVBL
NEWARK         PTCLDY    41  28  60 NW9       29.93R
MARION         CLEAR     38  28  67 N10       29.96R
LANCASTER      CLOUDY    41  32  70 NW7       29.95R
ZANESVILLE     CLOUDY    44  30  57 N7        29.92R
NEW PHILLY     CLOUDY    42  31  64 NW9       29.91R
$$



USA.gov is the U.S. government's official web portal to all federal, state and local government web resources and services.